,,,PA_Meas_PMT16A,,PR_Meas_QMR101_102,,RH_Meas_QMH101,,SR_Meas_QMS101,,TA_Meas_QMH101,,GenWind,,GenWind,
date,time,status,PA,status,PR,status,RH,status,SR,status,TA,status,DirAvg,status,SpdAvg,
2008-07-14, 07:21:04,VALID,1006.5,VALID,0,VALID,96.3451,VALID,46.7618,VALID,23.4328,VALID,16,VALID,1.71055,
2008-07-14, 07:22:04,VALID,1006.54,VALID,0,VALID,96.3604,VALID,52.8961,VALID,23.4523,VALID,357,VALID,1.1168,
2008-07-14, 07:23:04,VALID,1006.56,VALID,0,VALID,96.3604,VALID,61.2428,VALID,23.4523,VALID,355,VALID,1.29102,
2008-07-14, 07:24:04,VALID,1006.59,VALID,0,VALID,96.3604,VALID,72.1036,VALID,23.4505,VALID,351,VALID,1.25859,
2008-07-14, 07:25:04,VALID,1006.59,VALID,0,VALID,96.3375,VALID,82.5622,VALID,23.4718,VALID,348,VALID,1.08203,
2008-07-14, 07:26:04,VALID,1006.59,VALID,0,VALID,96.307,VALID,91.0095,VALID,23.4116,VALID,346,VALID,0.981641,
2008-07-14, 07:27:04,VALID,1006.63,VALID,0,VALID,96.307,VALID,95.2331,VALID,23.4311,VALID,354,VALID,1.4418,
2008-07-14, 07:28:04,VALID,1006.62,VALID,0,VALID,96.3222,VALID,101.166,VALID,23.4523,VALID,351,VALID,1.19258,
2008-07-14, 07:29:04,VALID,1006.63,VALID,0,VALID,96.3146,VALID,107.502,VALID,23.4505,VALID,350,VALID,1.16406,
2008-07-14, 07:30:04,VALID,1006.63,VALID,0,VALID,96.3146,VALID,111.826,VALID,23.5107,VALID,351,VALID,1.08477,
2008-07-14, 07:31:04,VALID,1006.64,VALID,0,VALID,96.3146,VALID,113.234,VALID,23.47,VALID,352,VALID,1.35859,
2008-07-14, 07:32:04,VALID,1006.7,VALID,0,VALID,96.2917,VALID,110.318,VALID,23.4912,VALID,354,VALID,1.54688,
2008-07-14, 07:33:04,VALID,1006.7,VALID,0,VALID,96.2841,VALID,105.39,VALID,23.47,VALID,352,VALID,1.76016,
2008-07-14, 07:34:04,VALID,1006.72,VALID,0,VALID,96.2688,VALID,104.284,VALID,23.47,VALID,8,VALID,1.28203,
2008-07-14, 07:35:04,VALID,1006.76,VALID,0,VALID,96.307,VALID,103.882,VALID,23.5302,VALID,1,VALID,0.937109,
2008-07-14, 07:36:04,VALID,1006.79,VALID,0,VALID,96.2688,VALID,96.8421,VALID,23.47,VALID,351,VALID,1.63477,
2008-07-14, 07:37:04,VALID,1006.82,VALID,0,VALID,96.2612,VALID,80.4504,VALID,23.4894,VALID,1,VALID,1.55234,
2008-07-14, 07:38:04,VALID,1006.89,VALID,0,VALID,96.2154,VALID,65.3659,VALID,23.4912,VALID,346,VALID,1.99531,
2008-07-14, 07:39:04,VALID,1006.9,VALID,0,VALID,96.1926,VALID,58.4271,VALID,23.47,VALID,354,VALID,1.60547,
2008-07-14, 07:40:04,VALID,1006.92,VALID,0,VALID,96.1926,VALID,58.3265,VALID,23.47,VALID,1,VALID,1.83516,
2008-07-14, 07:41:04,VALID,1006.97,VALID,0,VALID,96.1926,VALID,61.1423,VALID,23.4912,VALID,356,VALID,1.46914,
2008-07-14, 07:42:04,VALID,1007.01,VALID,0,VALID,96.1926,VALID,58.8293,VALID,23.4894,VALID,11,VALID,1.66992,
2008-07-14, 07:43:04,VALID,1007.07,VALID,0,VALID,96.2078,VALID,50.0803,VALID,23.5302,VALID,2,VALID,1.22148,
2008-07-14, 07:44:04,VALID,1007.12,VALID,0,VALID,96.1849,VALID,38.3145,VALID,23.4894,VALID,15,VALID,1.85625,
2008-07-14, 07:45:04,VALID,1007.07,VALID,0,VALID,96.1315,VALID,28.0571,VALID,23.4912,VALID,324,VALID,0.656641,
2008-07-14, 07:46:04,VALID,1007.05,VALID,0,VALID,96.0705,VALID,20.3137,VALID,23.4311,VALID,313,VALID,1.1457,
2008-07-14, 07:47:04,VALID,1006.65,VALID,0,VALID,96.0705,VALID,15.6878,VALID,23.4328,VALID,356,VALID,1.18945,
2008-07-14, 07:48:04,VALID,1006.82,VALID,0,VALID,96.0476,VALID,13.2743,VALID,23.3727,VALID,352,VALID,1.57266,
2008-07-14, 07:49:04,VALID,1007.59,VALID,0,VALID,95.9942,VALID,13.6766,VALID,23.3337,VALID,14,VALID,1.70742,
2008-07-14, 07:50:04,VALID,1007.1,VALID,0,VALID,96.0781,VALID,17.5985,VALID,23.3727,VALID,39,VALID,1.12578,
2008-07-14, 07:51:04,VALID,1007.12,VALID,0,VALID,95.9713,VALID,26.4481,VALID,23.355,VALID,34,VALID,0.848828,
2008-07-14, 07:52:04,VALID,1007.13,VALID,0,VALID,95.9255,VALID,38.415,VALID,23.3355,VALID,76,VALID,2.08242,
2008-07-14, 07:53:04,VALID,1007.2,VALID,0,VALID,95.9561,VALID,50.0803,VALID,23.355,VALID,34,VALID,1.29453,
2008-07-14, 07:54:04,VALID,1007.23,VALID,0,VALID,95.8645,VALID,58.2259,VALID,23.355,VALID,25,VALID,2.63203,
2008-07-14, 07:55:04,VALID,1007.22,VALID,0,VALID,95.8569,VALID,63.4552,VALID,23.355,VALID,20,VALID,1.74922,
2008-07-14, 07:56:04,VALID,1007.27,VALID,0,VALID,95.834,VALID,67.5783,VALID,23.3957,VALID,13,VALID,1.87773,
2008-07-14, 07:57:04,VALID,1007.23,VALID,0,VALID,95.8645,VALID,70.8969,VALID,23.3921,VALID,16,VALID,1.36289,
2008-07-14, 07:58:04,VALID,1007.3,VALID,0,VALID,95.9103,VALID,73.8132,VALID,23.4523,VALID,12,VALID,1.03359,
2008-07-14, 07:59:04,VALID,1007.25,VALID,0,VALID,95.9179,VALID,76.7295,VALID,23.4735,VALID,360,VALID,1.41914,
2008-07-14, 08:00:04,VALID,1007.29,VALID,0,VALID,95.9789,VALID,80.6515,VALID,23.4718,VALID,23,VALID,0.935938,
2008-07-14, 08:01:04,VALID,1007.29,VALID,0,VALID,95.8569,VALID,85.4785,VALID,23.4311,VALID,28,VALID,2.37852,
2008-07-14, 08:02:04,VALID,1007.29,VALID,0,VALID,95.8187,VALID,90.7078,VALID,23.4718,VALID,24,VALID,2.93711,
2008-07-14, 08:03:04,VALID,1007.31,VALID,0,VALID,95.7806,VALID,95.8365,VALID,23.4718,VALID,8,VALID,1.92852,
2008-07-14, 08:04:04,VALID,1007.33,VALID,0,VALID,95.7577,VALID,100.462,VALID,23.4912,VALID,8,VALID,1.32227,
2008-07-14, 08:05:04,VALID,1007.3,VALID,0,VALID,95.7043,VALID,104.384,VALID,23.4912,VALID,13,VALID,1.98828,
2008-07-14, 08:06:04,VALID,1007.36,VALID,0,VALID,95.6356,VALID,107.602,VALID,23.4912,VALID,353,VALID,1.68203,
2008-07-14, 08:07:04,VALID,1007.38,VALID,0,VALID,95.5517,VALID,109.312,VALID,23.4718,VALID,5,VALID,1.66406,
2008-07-14, 08:08:04,VALID,1007.32,VALID,0,VALID,95.567,VALID,109.614,VALID,23.4912,VALID,346,VALID,1.6332,
2008-07-14, 08:09:04,VALID,1007.36,VALID,0,VALID,95.4373,VALID,108.608,VALID,23.4718,VALID,355,VALID,2.03906,
2008-07-14, 08:10:04,VALID,1007.36,VALID,0,VALID,95.4297,VALID,107.803,VALID,23.4735,VALID,2,VALID,1.52578,
2008-07-14, 08:11:04,VALID,1007.38,VALID,0,VALID,95.3839,VALID,107.602,VALID,23.4718,VALID,353,VALID,2.05859,
2008-07-14, 08:12:04,VALID,1007.37,VALID,0,VALID,95.3915,VALID,108.306,VALID,23.4328,VALID,1,VALID,1.58438,
2008-07-14, 08:13:04,VALID,1007.36,VALID,0,VALID,95.2161,VALID,110.116,VALID,23.4328,VALID,338,VALID,1.8582,
2008-07-14, 08:14:04,VALID,1007.36,VALID,0,VALID,95.361,VALID,112.932,VALID,23.4523,VALID,353,VALID,1.24219,
2008-07-14, 08:15:04,VALID,1007.35,VALID,0,VALID,95.4068,VALID,116.552,VALID,23.5125,VALID,356,VALID,1.48203,
2008-07-14, 08:16:04,VALID,1007.35,VALID,0,VALID,95.4678,VALID,120.474,VALID,23.5302,VALID,351,VALID,1.63711,
2008-07-14, 08:17:04,VALID,1007.37,VALID,0,VALID,95.6356,VALID,123.592,VALID,23.5885,VALID,358,VALID,1.32695,
2008-07-14, 08:18:04,VALID,1007.38,VALID,0,VALID,95.5517,VALID,125.301,VALID,23.5868,VALID,351,VALID,1.51758,
2008-07-14, 08:19:04,VALID,1007.39,VALID,0,VALID,95.5746,VALID,126.408,VALID,23.6293,VALID,353,VALID,1.64258,
2008-07-14, 08:20:04,VALID,1007.39,VALID,0,VALID,95.5822,VALID,128.117,VALID,23.6275,VALID,9,VALID,1.69141,
2008-07-14, 08:21:04,VALID,1007.38,VALID,0,VALID,95.5594,VALID,129.726,VALID,23.6257,VALID,350,VALID,1.90078,
2008-07-14, 08:22:04,VALID,1007.39,VALID,0,VALID,95.6356,VALID,131.838,VALID,23.6646,VALID,353,VALID,1.94336,
2008-07-14, 08:23:04,VALID,1007.41,VALID,0,VALID,95.5899,VALID,135.458,VALID,23.6646,VALID,358,VALID,2.08086,
2008-07-14, 08:24:04,VALID,1007.4,VALID,0,VALID,95.5288,VALID,139.984,VALID,23.6841,VALID,353,VALID,1.92695,
2008-07-14, 08:25:04,VALID,1007.41,VALID,0,VALID,95.628,VALID,144.71,VALID,23.6628,VALID,357,VALID,1.15469,
2008-07-14, 08:26:04,VALID,1007.43,VALID,0,VALID,95.6204,VALID,149.135,VALID,23.7035,VALID,7,VALID,1.46719,
2008-07-14, 08:27:04,VALID,1007.42,VALID,0,VALID,95.6356,VALID,153.057,VALID,23.7425,VALID,358,VALID,1.24688,
2008-07-14, 08:28:04,VALID,1007.43,VALID,0,VALID,95.5594,VALID,156.878,VALID,23.7443,VALID,10,VALID,1.5668,
2008-07-14, 08:29:04,VALID,1007.42,VALID,0,VALID,95.6051,VALID,161.102,VALID,23.7619,VALID,1,VALID,1.56055,
2008-07-14, 08:30:04,VALID,1007.44,VALID,0,VALID,95.5517,VALID,165.728,VALID,23.7832,VALID,354,VALID,1.90547,
2008-07-14, 08:31:04,VALID,1007.43,VALID,0,VALID,95.5899,VALID,170.555,VALID,23.8009,VALID,356,VALID,1.44531,
2008-07-14, 08:32:04,VALID,1007.47,VALID,0,VALID,95.7119,VALID,175.683,VALID,23.8593,VALID,354,VALID,0.953125,
2008-07-14, 08:33:04,VALID,1007.44,VALID,0,VALID,95.5288,VALID,180.812,VALID,23.8203,VALID,356,VALID,1.70625,
2008-07-14, 08:34:04,VALID,1007.45,VALID,0,VALID,95.4297,VALID,184.935,VALID,23.8221,VALID,346,VALID,1.44023,
2008-07-14, 08:35:04,VALID,1007.47,VALID,0,VALID,95.3991,VALID,187.952,VALID,23.8221,VALID,351,VALID,1.87617,
2008-07-14, 08:36:04,VALID,1007.47,VALID,0,VALID,95.3152,VALID,191.271,VALID,23.8221,VALID,352,VALID,1.83008,
2008-07-14, 08:37:04,VALID,1007.44,VALID,0,VALID,95.3686,VALID,196.299,VALID,23.8824,VALID,349,VALID,1.57187,
2008-07-14, 08:38:04,VALID,1007.46,VALID,0,VALID,95.3915,VALID,202.232,VALID,23.9213,VALID,351,VALID,1.48164,
2008-07-14, 08:39:04,VALID,1007.44,VALID,0,VALID,95.3763,VALID,207.26,VALID,23.9195,VALID,356,VALID,1.62695,
2008-07-14, 08:40:04,VALID,1007.47,VALID,0,VALID,95.3915,VALID,211.584,VALID,23.9389,VALID,357,VALID,1.05469,
2008-07-14, 08:41:04,VALID,1007.45,VALID,0,VALID,95.4373,VALID,216.11,VALID,23.9973,VALID,353,VALID,1.72734,
2008-07-14, 08:42:04,VALID,1007.43,VALID,0,VALID,95.3305,VALID,219.931,VALID,24.0168,VALID,352,VALID,1.85781,
2008-07-14, 08:43:04,VALID,1007.43,VALID,0,VALID,95.2313,VALID,223.049,VALID,24.0576,VALID,356,VALID,1.41953,
2008-07-14, 08:44:04,VALID,1007.42,VALID,0,VALID,95.094,VALID,225.965,VALID,24.0576,VALID,352,VALID,1.54961,
2008-07-14, 08:45:04,VALID,1007.42,VALID,0,VALID,94.8956,VALID,228.781,VALID,24.0576,VALID,357,VALID,1.69609,
2008-07-14, 08:46:04,VALID,1007.46,VALID,0,VALID,94.8956,VALID,231.194,VALID,24.0752,VALID,354,VALID,1.75781,
2008-07-14, 08:47:04,VALID,1007.43,VALID,0,VALID,94.8499,VALID,233.407,VALID,24.1142,VALID,338,VALID,1.06406,
2008-07-14, 08:48:04,VALID,1007.44,VALID,0,VALID,94.7354,VALID,234.714,VALID,24.0947,VALID,352,VALID,1.79258,
2008-07-14, 08:49:04,VALID,1007.44,VALID,0,VALID,94.8041,VALID,235.72,VALID,24.1336,VALID,354,VALID,1.70508,
2008-07-14, 08:50:04,VALID,1007.49,VALID,0,VALID,94.7888,VALID,236.524,VALID,24.1726,VALID,12,VALID,2.3375,
2008-07-14, 08:51:04,VALID,1007.48,VALID,0,VALID,94.6439,VALID,237.731,VALID,24.1707,VALID,350,VALID,1.32344,
2008-07-14, 08:52:04,VALID,1007.45,VALID,0,VALID,94.7354,VALID,239.541,VALID,24.2504,VALID,351,VALID,1.51133,
2008-07-14, 08:53:04,VALID,1007.5,VALID,0,VALID,94.4684,VALID,242.256,VALID,24.2291,VALID,352,VALID,2.5832,
2008-07-14, 08:54:04,VALID,1007.49,VALID,0,VALID,94.293,VALID,245.675,VALID,24.2486,VALID,349,VALID,2.61953,
2008-07-14, 08:55:04,VALID,1007.48,VALID,0,VALID,93.9649,VALID,248.29,VALID,24.2115,VALID,10,VALID,2.42695,
2008-07-14, 08:56:04,VALID,1007.52,VALID,0,VALID,94.0488,VALID,251.508,VALID,24.2504,VALID,14,VALID,2.55625,
2008-07-14, 08:57:04,VALID,1007.51,VALID,0,VALID,94.3692,VALID,255.631,VALID,24.3283,VALID,2,VALID,1.74922,
2008-07-14, 08:58:04,VALID,1007.53,VALID,0,VALID,93.8429,VALID,259.452,VALID,24.3107,VALID,355,VALID,2.37188,
2008-07-14, 08:59:04,VALID,1007.52,VALID,0,VALID,93.6064,VALID,262.268,VALID,24.2875,VALID,358,VALID,2.30977,
2008-07-14, 09:00:04,VALID,1007.5,VALID,0,VALID,93.5148,VALID,266.391,VALID,24.2894,VALID,355,VALID,2.40039,
2008-07-14, 09:01:04,VALID,1007.47,VALID,0,VALID,93.9268,VALID,271.822,VALID,24.3478,VALID,347,VALID,1.71602,
2008-07-14, 09:02:04,VALID,1007.47,VALID,0,VALID,94.0183,VALID,277.353,VALID,24.4062,VALID,2,VALID,1.8957,
2008-07-14, 09:03:04,VALID,1007.49,VALID,0,VALID,93.8123,VALID,281.777,VALID,24.4062,VALID,352,VALID,1.3582,
2008-07-14, 09:04:04,VALID,1007.48,VALID,0,VALID,93.4919,VALID,285.297,VALID,24.3867,VALID,349,VALID,2.26367,
2008-07-14, 09:05:04,VALID,1007.5,VALID,0,VALID,94.0488,VALID,289.118,VALID,24.4451,VALID,4,VALID,1.54414,
2008-07-14, 09:06:04,VALID,1007.5,VALID,0,VALID,93.7208,VALID,293.845,VALID,24.5249,VALID,354,VALID,1.96836,
2008-07-14, 09:07:04,VALID,1007.49,VALID,0,VALID,93.4462,VALID,299.074,VALID,24.562,VALID,355,VALID,1.59063,
2008-07-14, 09:08:04,VALID,1007.46,VALID,0,VALID,93.8657,VALID,303.901,VALID,24.6204,VALID,6,VALID,1.1293,
2008-07-14, 09:09:04,VALID,1007.51,VALID,0,VALID,93.4004,VALID,310.036,VALID,24.6009,VALID,347,VALID,2.06953,
2008-07-14, 09:10:04,VALID,1007.49,VALID,0,VALID,93.5148,VALID,317.276,VALID,24.6612,VALID,356,VALID,1.76641,
2008-07-14, 09:11:04,VALID,1007.53,VALID,0,VALID,93.1334,VALID,323.813,VALID,24.6204,VALID,350,VALID,2.2793,
2008-07-14, 09:12:04,VALID,1007.54,VALID,0,VALID,93.7208,VALID,330.148,VALID,24.7196,VALID,351,VALID,1.37812,
2008-07-14, 09:13:04,VALID,1007.55,VALID,0,VALID,93.2859,VALID,335.377,VALID,24.7196,VALID,354,VALID,1.44531,
2008-07-14, 09:14:04,VALID,1007.54,VALID,0,VALID,93.141,VALID,339.199,VALID,24.7372,VALID,347,VALID,2.11211,
2008-07-14, 09:15:04,VALID,1007.56,VALID,0,VALID,93.4462,VALID,344.428,VALID,24.7567,VALID,355,VALID,1.51055,
2008-07-14, 09:16:04,VALID,1007.54,VALID,0,VALID,93.1486,VALID,344.629,VALID,24.778,VALID,347,VALID,1.41289,
2008-07-14, 09:17:04,VALID,1007.51,VALID,0,VALID,92.2713,VALID,319.287,VALID,24.7372,VALID,341,VALID,2.55508,
2008-07-14, 09:18:04,VALID,1007.54,VALID,0,VALID,92.6299,VALID,308.427,VALID,24.7372,VALID,350,VALID,1.37617,
2008-07-14, 09:19:04,VALID,1007.54,VALID,0,VALID,92.7519,VALID,311.946,VALID,24.7975,VALID,349,VALID,1.84219,
2008-07-14, 09:20:04,VALID,1007.54,VALID,0,VALID,91.9585,VALID,333.266,VALID,24.7761,VALID,347,VALID,2.89766,
2008-07-14, 09:21:04,VALID,1007.55,VALID,0,VALID,92.5231,VALID,369.167,VALID,24.7975,VALID,297,VALID,1.08711,
2008-07-14, 09:22:04,VALID,1007.56,VALID,0,VALID,92.5231,VALID,426.89,VALID,24.8559,VALID,345,VALID,1.74727,
2008-07-14, 09:23:04,VALID,1007.53,VALID,0,VALID,92.6528,VALID,459.372,VALID,24.8949,VALID,348,VALID,1.66211,
2008-07-14, 09:24:04,VALID,1007.56,VALID,0,VALID,92.1798,VALID,537.006,VALID,24.9533,VALID,357,VALID,2.16055,
2008-07-14, 09:25:04,VALID,1007.54,VALID,0,VALID,91.8136,VALID,439.058,VALID,25.0136,VALID,347,VALID,1.53008,
2008-07-14, 09:26:04,VALID,1007.56,VALID,0,VALID,91.2719,VALID,520.112,VALID,24.9922,VALID,346,VALID,2.32383,
2008-07-14, 09:27:04,VALID,1007.54,VALID,0,VALID,91.0583,VALID,563.152,VALID,25.0312,VALID,352,VALID,2.37266,
2008-07-14, 09:28:04,VALID,1007.54,VALID,0,VALID,91.5084,VALID,389.883,VALID,25.1091,VALID,354,VALID,2.26133,
2008-07-14, 09:29:04,VALID,1007.5,VALID,0,VALID,91.7525,VALID,356.496,VALID,25.2084,VALID,333,VALID,1.41367,
2008-07-14, 09:30:04,VALID,1007.46,VALID,0,VALID,90.8142,VALID,347.445,VALID,25.226,VALID,332,VALID,1.45352,
2008-07-14, 09:31:04,VALID,1007.43,VALID,0,VALID,90.4785,VALID,291.431,VALID,25.2454,VALID,355,VALID,1.43398,
2008-07-14, 09:32:04,VALID,1007.42,VALID,0,VALID,90.6464,VALID,257.039,VALID,25.2065,VALID,299,VALID,1.35,
2008-07-14, 09:33:04,VALID,1007.39,VALID,0,VALID,90.4327,VALID,230.792,VALID,25.2065,VALID,307,VALID,1.16602,
2008-07-14, 09:34:04,VALID,1007.4,VALID,0,VALID,90.5014,VALID,197.103,VALID,25.1675,VALID,288,VALID,1.05703,
2008-07-14, 09:35:04,VALID,1007.38,VALID,0,VALID,89.0824,VALID,164.219,VALID,25.0682,VALID,352,VALID,2.54063,
2008-07-14, 09:36:04,VALID,1007.37,VALID,0,VALID,90.8829,VALID,136.162,VALID,24.9709,VALID,319,VALID,1.07891,
2008-07-14, 09:37:04,VALID,1007.43,VALID,0,VALID,91.0965,VALID,112.228,VALID,24.9709,VALID,290,VALID,0.774219,
2008-07-14, 09:38:04,VALID,1007.45,VALID,0,VALID,90.715,VALID,99.7584,VALID,24.893,VALID,348,VALID,0.963281,
2008-07-14, 09:39:04,VALID,1007.44,VALID,0,VALID,90.2039,VALID,104.686,VALID,24.8346,VALID,343,VALID,1.33984,
2008-07-14, 09:40:04,VALID,1007.46,VALID,0,VALID,90.6921,VALID,123.089,VALID,24.7956,VALID,301,VALID,0.633594,
2008-07-14, 09:41:04,VALID,1007.45,VALID,0,VALID,90.8981,VALID,145.716,VALID,24.7567,VALID,227,VALID,0.809766,
2008-07-14, 09:42:04,VALID,1007.46,VALID,0,VALID,91.8899,VALID,161.303,VALID,24.7761,VALID,215,VALID,0.689062,
2008-07-14, 09:43:04,VALID,1007.44,VALID,0,VALID,92.1035,VALID,173.069,VALID,24.8151,VALID,223,VALID,0.263672,
2008-07-14, 09:44:04,VALID,1007.42,VALID,0,VALID,92.462,VALID,191.774,VALID,24.8559,VALID,283,VALID,0.585938,
2008-07-14, 09:45:04,VALID,1007.41,VALID,0,VALID,92.2637,VALID,205.752,VALID,24.8735,VALID,299,VALID,0.489844,
2008-07-14, 09:46:04,VALID,1007.42,VALID,0,VALID,92.3476,VALID,213.395,VALID,24.9338,VALID,285,VALID,0.640234,
2008-07-14, 09:47:04,VALID,1007.39,VALID,0,VALID,92.3781,VALID,215.708,VALID,24.9904,VALID,291,VALID,0.657812,
2008-07-14, 09:48:04,VALID,1007.45,VALID,0,VALID,92.5383,VALID,216.411,VALID,25.0488,VALID,283,VALID,0.765234,
2008-07-14, 09:49:04,VALID,1007.46,VALID,0,VALID,91.9814,VALID,218.02,VALID,25.0877,VALID,301,VALID,0.848047,
2008-07-14, 09:50:04,VALID,1007.49,VALID,0,VALID,91.6915,VALID,223.35,VALID,25.1072,VALID,302,VALID,0.571094,
2008-07-14, 09:51:04,VALID,1007.5,VALID,0,VALID,90.9668,VALID,271.218,VALID,25.0293,VALID,223,VALID,0.606641,
2008-07-14, 09:52:04,VALID,1007.48,VALID,0,VALID,90.1352,VALID,239.34,VALID,24.9709,VALID,295,VALID,1.93125,
2008-07-14, 09:53:04,VALID,1007.53,VALID,0,VALID,91.455,VALID,242.658,VALID,24.9709,VALID,254,VALID,0.532422,
2008-07-14, 09:54:04,VALID,1007.53,VALID,0,VALID,91.1804,VALID,280.269,VALID,24.9495,VALID,266,VALID,0.662891,
2008-07-14, 09:55:04,VALID,1007.51,VALID,0,VALID,91.9051,VALID,276.95,VALID,25.0682,VALID,284,VALID,0.753906,
2008-07-14, 09:56:04,VALID,1007.52,VALID,0,VALID,92.2255,VALID,327.936,VALID,25.148,VALID,295,VALID,0.473047,
2008-07-14, 09:57:04,VALID,1007.5,VALID,0,VALID,92.4391,VALID,407.883,VALID,25.263,VALID,271,VALID,0.657031,
2008-07-14, 09:58:04,VALID,1007.51,VALID,0,VALID,91.1117,VALID,432.923,VALID,25.3019,VALID,300,VALID,1.52422,
2008-07-14, 09:59:04,VALID,1007.48,VALID,0,VALID,90.1505,VALID,419.649,VALID,25.2825,VALID,288,VALID,1.80469,
2008-07-14, 10:00:05,VALID,1007.47,VALID,0,VALID,90.4938,VALID,395.514,VALID,25.2825,VALID,293,VALID,1.41758,
2008-07-14, 10:01:05,VALID,1007.45,VALID,0,VALID,90.242,VALID,400.241,VALID,25.2825,VALID,310,VALID,1.43555,
2008-07-14, 10:02:05,VALID,1007.45,VALID,0,VALID,89.4639,VALID,416.331,VALID,25.3233,VALID,304,VALID,1.46172,
2008-07-14, 10:03:05,VALID,1007.43,VALID,0,VALID,90.8829,VALID,439.963,VALID,25.3409,VALID,37,VALID,0.550391,
2008-07-14, 10:04:05,VALID,1007.44,VALID,0,VALID,90.5319,VALID,470.836,VALID,25.4383,VALID,292,VALID,0.709375,
2008-07-14, 10:05:05,VALID,1007.41,VALID,0,VALID,89.1892,VALID,481.294,VALID,25.4967,VALID,282,VALID,1.38203,
2008-07-14, 10:06:05,VALID,1007.41,VALID,0,VALID,89.9598,VALID,483.406,VALID,25.5941,VALID,266,VALID,1.49141,
2008-07-14, 10:07:05,VALID,1007.38,VALID,0,VALID,88.4111,VALID,518.603,VALID,25.596,VALID,300,VALID,1.5457,
2008-07-14, 10:08:05,VALID,1007.39,VALID,0,VALID,89.6775,VALID,496.982,VALID,25.6136,VALID,278,VALID,0.560156,
2008-07-14, 10:09:05,VALID,1007.42,VALID,0,VALID,88.968,VALID,573.108,VALID,25.7109,VALID,305,VALID,1.14141,
2008-07-14, 10:10:05,VALID,1007.39,VALID,0,VALID,86.3132,VALID,379.927,VALID,25.7713,VALID,289,VALID,2.89687,
2008-07-14, 10:11:05,VALID,1007.37,VALID,0,VALID,87.16,VALID,377.111,VALID,25.5357,VALID,283,VALID,1.91211,
2008-07-14, 10:12:05,VALID,1007.35,VALID,0,VALID,88.3119,VALID,364.34,VALID,25.5376,VALID,328,VALID,1.15898,
2008-07-14, 10:13:05,VALID,1007.36,VALID,0,VALID,87.7779,VALID,362.731,VALID,25.4967,VALID,311,VALID,0.914063,
2008-07-14, 10:14:05,VALID,1007.36,VALID,0,VALID,88.2509,VALID,364.641,VALID,25.5765,VALID,278,VALID,1.62539,
2008-07-14, 10:15:05,VALID,1007.33,VALID,0,VALID,88.6934,VALID,354.384,VALID,25.5941,VALID,1,VALID,0.519141,
2008-07-14, 10:16:05,VALID,1007.33,VALID,0,VALID,87.1905,VALID,346.942,VALID,25.6136,VALID,291,VALID,2.22422,
2008-07-14, 10:17:05,VALID,1007.32,VALID,0,VALID,86.3055,VALID,339.4,VALID,25.4967,VALID,286,VALID,2.79336,
2008-07-14, 10:18:05,VALID,1007.3,VALID,0,VALID,87.9381,VALID,331.355,VALID,25.5181,VALID,305,VALID,0.917969,
2008-07-14, 10:19:05,VALID,1007.33,VALID,0,VALID,87.5414,VALID,325.12,VALID,25.5357,VALID,298,VALID,1.63867,
2008-07-14, 10:20:05,VALID,1007.33,VALID,0,VALID,88.0983,VALID,318.986,VALID,25.5765,VALID,307,VALID,0.867578,
2008-07-14, 10:21:05,VALID,1007.33,VALID,0,VALID,88.4645,VALID,312.55,VALID,25.635,VALID,288,VALID,1.16484,
2008-07-14, 10:22:05,VALID,1007.3,VALID,0,VALID,87.6558,VALID,304.002,VALID,25.6739,VALID,299,VALID,1.54297,
2008-07-14, 10:23:05,VALID,1007.33,VALID,0,VALID,88.2051,VALID,297.666,VALID,25.6739,VALID,342,VALID,1.10391,
2008-07-14, 10:24:05,VALID,1007.31,VALID,0,VALID,86.6259,VALID,290.024,VALID,25.6545,VALID,300,VALID,1.95313,
2008-07-14, 10:25:05,VALID,1007.32,VALID,0,VALID,87.549,VALID,282.783,VALID,25.6136,VALID,276,VALID,0.901953,
2008-07-14, 10:26:05,VALID,1007.3,VALID,0,VALID,87.9686,VALID,279.163,VALID,25.6934,VALID,344,VALID,1.31758,
2008-07-14, 10:27:05,VALID,1007.29,VALID,0,VALID,86.8243,VALID,272.324,VALID,25.672,VALID,348,VALID,1.55742,
2008-07-14, 10:28:05,VALID,1007.31,VALID,0,VALID,86.3742,VALID,268.302,VALID,25.6739,VALID,350,VALID,1.83633,
2008-07-14, 10:29:05,VALID,1007.29,VALID,0,VALID,87.0303,VALID,272.023,VALID,25.6545,VALID,2,VALID,1.29453,
2008-07-14, 10:30:05,VALID,1007.3,VALID,0,VALID,87.4117,VALID,275.844,VALID,25.6934,VALID,341,VALID,0.855859,
2008-07-14, 10:31:05,VALID,1007.24,VALID,0,VALID,87.0913,VALID,278.057,VALID,25.7129,VALID,311,VALID,1.47227,
2008-07-14, 10:32:05,VALID,1007.22,VALID,0,VALID,85.4435,VALID,278.66,VALID,25.6739,VALID,277,VALID,1.95391,
2008-07-14, 10:33:05,VALID,1007.22,VALID,0,VALID,85.5655,VALID,278.76,VALID,25.6739,VALID,293,VALID,2.6375,
2008-07-14, 10:34:05,VALID,1007.18,VALID,0,VALID,86.8167,VALID,278.358,VALID,25.633,VALID,292,VALID,1.30391,
2008-07-14, 10:35:05,VALID,1007.19,VALID,0,VALID,87.0608,VALID,277.453,VALID,25.6739,VALID,348,VALID,1.61211,
2008-07-14, 10:36:05,VALID,1007.16,VALID,0,VALID,87.549,VALID,275.341,VALID,25.7109,VALID,305,VALID,0.885156,
2008-07-14, 10:37:05,VALID,1007.16,VALID,0,VALID,86.6107,VALID,272.023,VALID,25.7304,VALID,297,VALID,1.74492,
2008-07-14, 10:38:05,VALID,1007.16,VALID,0,VALID,86.1453,VALID,272.928,VALID,25.7285,VALID,304,VALID,1.66328,
2008-07-14, 10:39:05,VALID,1007.16,VALID,0,VALID,86.2292,VALID,269.911,VALID,25.7304,VALID,300,VALID,1.12617,
2008-07-14, 10:40:05,VALID,1007.14,VALID,0,VALID,85.9393,VALID,269.006,VALID,25.672,VALID,302,VALID,1.49375,
2008-07-14, 10:41:05,VALID,1007.12,VALID,0,VALID,86.9845,VALID,270.012,VALID,25.67,VALID,352,VALID,1.47695,
2008-07-14, 10:42:05,VALID,1007.12,VALID,0,VALID,86.6336,VALID,273.531,VALID,25.6895,VALID,326,VALID,1.71172,
2008-07-14, 10:43:05,VALID,1007.09,VALID,0,VALID,87.0532,VALID,275.744,VALID,25.7285,VALID,291,VALID,1.61641,
2008-07-14, 10:44:05,VALID,1007.06,VALID,0,VALID,85.7562,VALID,280.872,VALID,25.7324,VALID,293,VALID,2.53047,
2008-07-14, 10:45:05,VALID,1007.06,VALID,0,VALID,86.275,VALID,279.464,VALID,25.6525,VALID,294,VALID,0.894922,
2008-07-14, 10:46:05,VALID,1007.06,VALID,0,VALID,86.0843,VALID,280.168,VALID,25.67,VALID,299,VALID,2.01172,
2008-07-14, 10:47:05,VALID,1007.03,VALID,0,VALID,86.0156,VALID,281.677,VALID,25.6915,VALID,305,VALID,1.61445,
2008-07-14, 10:48:05,VALID,1007.01,VALID,0,VALID,86.6946,VALID,284.493,VALID,25.7285,VALID,285,VALID,1.53633,
2008-07-14, 10:49:05,VALID,1007,VALID,0,VALID,87.1752,VALID,286.604,VALID,25.8453,VALID,282,VALID,0.566797,
2008-07-14, 10:50:05,VALID,1006.95,VALID,0,VALID,86.0385,VALID,288.515,VALID,25.9252,VALID,352,VALID,0.939844,
2008-07-14, 10:51:05,VALID,1006.96,VALID,0,VALID,86.5878,VALID,290.727,VALID,25.9836,VALID,273,VALID,0.710547,
2008-07-14, 10:52:05,VALID,1006.94,VALID,0,VALID,85.9622,VALID,291.532,VALID,26.0031,VALID,358,VALID,0.690234,
2008-07-14, 10:53:05,VALID,1006.92,VALID,0,VALID,85.535,VALID,289.521,VALID,26.0421,VALID,346,VALID,0.889844,
2008-07-14, 10:54:05,VALID,1006.87,VALID,0,VALID,86.4276,VALID,280.772,VALID,26.081,VALID,278,VALID,0.492578,
2008-07-14, 10:55:05,VALID,1006.88,VALID,0,VALID,85.6418,VALID,271.118,VALID,26.12,VALID,290,VALID,1.42539,